This demonstration page uses our WeatherBlox Daily Observations layout. Learn more.

Left ArrowRight Arrow

53.62937, 11.41316

Hourly Observations for May 17, 2022

Temp ( °F °C ) Dew Point ( °F °C ) Humidity (%) Winds ( mph kmh ) Pressure ( in mb ) Visibility ( mi km ) Precip ( " mm )
12:20 am 00:20 Mostly Cloudy 59 15 46 8 63 63 ESE 8 13 30.03 1017 30 48 N/A
12:50 am 00:50 Mostly Cloudy 59 15 46 8 63 63 E 7 11 30.03 1017 30 48 N/A
1:20 am 01:20 Mostly Cloudy 59 15 46 8 63 63 E 5 7 30.06 1018 30 48 N/A
1:50 am 01:50 Cloudy 57 14 46 8 67 67 VRB 2 4 30.06 1018 30 48 N/A
2:20 am 02:20 Cloudy 57 14 48 9 72 72 W 7 11 30.09 1019 30 48 N/A
2:50 am 02:50 Partly Cloudy 55 13 48 9 77 77 VRB 2 4 30.09 1019 30 48 N/A
3:20 am 03:20 Mostly Cloudy 54 12 52 11 94 94 VRB 2 4 30.09 1019 4 7 N/A
3:50 am 03:50 Mostly Cloudy 54 12 52 11 94 94 ENE 7 11 30.06 1018 30 48 N/A
4:20 am 04:20 Mostly Cloudy 54 12 52 11 94 94 E 5 7 30.06 1018 30 48 N/A
4:50 am 04:50 Mostly Cloudy 54 12 52 11 94 94 SE 3 6 30.06 1018 30 48 N/A
5:20 am 05:20 Mostly Cloudy 54 12 52 11 94 94 ESE 3 6 30.06 1018 30 48 N/A
5:50 am 05:50 Mostly Cloudy 54 12 52 11 94 94 VRB 2 4 30.06 1018 30 48 N/A
6:20 am 06:20 Mostly Cloudy with Light Rain 54 12 52 11 94 94 VRB 2 4 30.09 1019 30 48 N/A
6:50 am 06:50 Mostly Cloudy with Light Rain 54 12 54 12 100 100 NW 3 6 30.09 1019 4 7 N/A
7:20 am 07:20 Mostly Cloudy with Rain 54 12 54 12 100 100 VRB 1 2 30.09 1019 4 6 N/A
7:50 am 07:50 Mostly Cloudy 54 12 54 12 100 100 NE 2 4 30.09 1019 30 48 N/A
8:20 am 08:20 Mostly Cloudy 54 12 54 12 100 100 ENE 3 6 30.09 1019 5 8 N/A
8:50 am 08:50 Mostly Cloudy 55 13 55 13 100 100 VRB 1 2 30.09 1019 30 48 N/A
9:20 am 09:20 Mostly Cloudy 55 13 54 12 94 94 VRB 1 2 30.12 1020 30 48 N/A
9:50 am 09:50 Mostly Cloudy 55 13 55 13 100 100 Calm 30.12 1020 30 48 N/A
10:20 am 10:20 Mostly Cloudy 55 13 55 13 100 100 VRB 2 4 30.12 1020 5 8 N/A
10:50 am 10:50 Mostly Cloudy 55 13 55 13 100 100 NE 3 6 30.12 1020 4 6 N/A
11:20 am 11:20 Mostly Cloudy 57 14 55 13 94 94 VRB 2 4 30.12 1020 5 8 N/A
11:50 am 11:50 Cloudy 57 14 55 13 94 94 VRB 2 4 30.15 1021 6 9 N/A
12:20 pm 12:20 Mostly Cloudy 57 14 55 13 94 94 N 3 6 30.15 1021 6 9 N/A
12:50 pm 12:50 Cloudy 57 14 55 13 94 94 N 3 6 30.15 1021 30 48 N/A
1:20 pm 13:20 Mostly Cloudy 57 14 55 13 94 94 NNE 3 6 30.15 1021 4 6 N/A
1:50 pm 13:50 Mostly Cloudy with Mist and Fog 57 14 55 13 94 94 ENE 3 6 30.15 1021 3 5 N/A
2:20 pm 14:20 Mostly Cloudy 59 15 57 14 94 94 ENE 3 6 30.15 1021 4 6 N/A
2:50 pm 14:50 Partly Cloudy 59 15 57 14 94 94 ENE 3 6 30.15 1021 4 6 N/A
3:20 pm 15:20 Mostly Cloudy 59 15 57 14 94 94 ENE 3 6 30.15 1021 3 4 N/A
3:50 pm 15:50 Mostly Cloudy with Light Rain 59 15 57 14 94 94 NE 3 6 30.15 1021 2 4 N/A
4:20 pm 16:20 Mostly Cloudy 59 15 57 14 94 94 NE 3 6 30.15 1021 30 48 N/A
4:50 pm 16:50 Mostly Cloudy 61 16 55 13 83 83 VRB 2 4 30.15 1021 30 48 N/A
5:20 pm 17:20 Mostly Cloudy 63 17 57 14 83 83 NNE 3 6 30.15 1021 30 48 N/A
5:50 pm 17:50 Mostly Cloudy 64 18 57 14 78 78 NNE 7 11 30.15 1021 30 48 N/A
6:20 pm 18:20 Mostly Cloudy 64 18 57 14 78 78 ENE 6 9 30.15 1021 30 48 N/A
6:50 pm 18:50 Mostly Sunny 64 18 55 13 73 73 NE 6 9 30.15 1021 30 48 N/A
7:20 pm 19:20 Mostly Sunny 64 18 55 13 73 73 ENE 6 9 30.15 1021 30 48 N/A
7:50 pm 19:50 Mostly Sunny 64 18 54 12 68 68 ENE 5 7 30.15 1021 7 11 N/A
8:20 pm 20:20 Mostly Sunny 63 17 55 13 77 77 NE 3 6 30.15 1021 7 11 N/A
8:50 pm 20:50 Mostly Sunny 61 16 55 13 83 83 NE 6 9 30.15 1021 7 11 N/A
9:20 pm 21:20 Mostly Cloudy 59 15 55 13 88 88 E 3 6 30.18 1022 30 48 N/A
9:50 pm 21:50 Partly Cloudy 57 14 54 12 88 88 ENE 2 4 30.18 1022 30 48 N/A
10:20 pm 22:20 Mostly Cloudy 59 15 55 13 88 88 E 3 6 30.18 1022 30 48 N/A
10:50 pm 22:50 Partly Cloudy 57 14 50 10 77 77 E 6 9 30.18 1022 30 48 N/A
11:20 pm 23:20 Mostly Cloudy 57 14 46 8 67 67 E 6 9 30.21 1023 30 48 N/A
11:50 pm 23:50 Partly Cloudy 57 14 43 6 59 59 ESE 6 9 30.21 1023 30 48 N/A

Powered by AerisWeather